{"data":{"norad_id":59125,"epoch":"2026-05-25T03:07:41.649888Z","epoch_age_seconds":63976,"freshness":"FRESH","line1":"1 59125U 24043AD  26145.13034317  .00007206  00000+0  21024-3 0  9991","line2":"2 59125  97.5606 285.5106 0008074 321.0364  39.0297 15.35632871123728","mean_motion":15.35632871,"eccentricity":0.0008074,"inclination_deg":97.5606,"raan_deg":285.5106,"arg_perigee_deg":321.0364,"mean_anomaly_deg":39.0297,"bstar":0.00021024,"rev_number":12372,"period_min":93.772413132982,"perigee_km":453.52100178759,"apogee_km":464.56167737034,"semimajor_km":6837.178339579,"source":"CELESTRAK","updated_at":"2026-05-25T13:38:01.194667Z"}}